Voltar ao catálogo

FENGYUN 1C DEB

AtivoPO
NORAD 29955·DEBRIS·🇨🇳 China

Lançado May 10, 1999 de Taiyuan Satellite Launch Center

Loading…

Próximas Passagens (próximas 24 horas)

TLE

AtualizadoSource: Space-Track

Época: Sep 13, 2026, 18:52 UTC

1 29955U 99025KD  26256.78650139  .00002653  00000-0  85162-3 0  9996
2 29955  99.2719   4.6369 0008248 168.2036 345.0164 14.40355849 20159

Acompanhe FENGYUN 1C DEB em tempo real com AllMySat

Download on the App Store